FW5449 Weather Reports


time (UTC)temp
C
wind
direction
speed
KPH
gust
KPH
rain 1hr
cm
rain 24hr
cm
rain mn
cm
humidity
%
barometer
mb
20260906004032 23 312 6.4 14.5 0.00 0.13 0.05 50 1014.1
20260906003533 23 357 4.8 14.5 0.00 0.13 0.05 49 1014.1
20260906003033 23 3 4.8 12.9 0.00 0.15 0.05 48 1014.2
20260906002534 23 6 8.0 14.5 0.00 0.15 0.05 49 1014.2
20260906002028 23 318 8.0 16.1 0.00 0.18 0.05 49 1014.1
20260906001527 23 298 8.0 16.1 0.00 0.18 0.05 48 1014.1
20260906001026 23 248 6.4 14.5 0.00 0.18 0.05 45 1014.1
20260906000525 23 273 6.4 12.9 0.00 0.18 0.05 46 1014.1
20260906000024 23 345 4.8 12.9 0.00 0.20 0.05 45 1014.1
20260905235520 23 232 4.8 12.9 0.00 0.20 0.05 47 1014.0
20260905235013 23 237 6.4 14.5 0.00 0.20 0.05 45 1013.9
20260905234730 23 291 6.4 14.5 0.00 0.20 0.05 47 1014.0
20260905234013 23 281 6.4 16.1 0.00 0.20 0.05 46 1014.0
20260905233511 23 328 6.4 16.1 0.00 0.23 0.05 46 1014.1
20260905233010 23 343 4.8 11.3 0.00 0.23 0.05 45 1014.1
20260905232508 23 312 6.4 12.9 0.00 0.25 0.05 48 1014.2
20260905232446 23 238 4.8 12.9 0.00 0.28 0.05 48 1014.4
20260905231500 23 249 6.4 12.9 0.00 0.33 0.05 48 1014.6
20260905230957 23 230 6.4 12.9 0.00 0.36 0.05 49 1014.6
20260905230457 23 286 4.8 12.9 0.00 0.38 0.05 48 1014.6
20260905225958 23 281 3.2 9.7 0.00 0.41 0.05 48 1014.6
20260905225455 24 328 4.8 14.5 0.00 0.41 0.05 47 1014.7
20260905224954 24 316 8.0 14.5 0.00 0.41 0.05 47 1014.7
20260905224457 24 12 8.0 14.5 0.00 0.41 0.05 46 1014.7
20260905223956 24 307 8.0 14.5 0.00 0.43 0.05 47 1014.7
20260905223453 24 305 6.4 14.5 0.00 0.43 0.05 47 1014.7
20260905223215 24 245 6.4 17.7 0.00 0.43 0.05 50 1014.8
20260905222456 24 240 8.0 19.3 0.00 0.43 0.05 48 1014.8
20260905221950 25 82 6.4 19.3 0.00 0.46 0.05 52 1014.8
20260905221450 24 241 6.4 16.1 0.00 0.48 0.05 51 1014.8
20260905220949 24 263 6.4 16.1 0.00 0.51 0.05 51 1014.7
20260905220447 24 286 4.8 12.9 0.00 0.53 0.05 50 1014.8
20260905215952 24 355 4.8 14.5 0.00 0.56 0.05 54 1014.7
20260905215447 24 234 6.4 14.5 0.00 0.56 0.05 54 1014.7
20260905215206 23 320 8.0 16.1 0.00 0.58 0.05 53 1014.8
20260905214445 23 228 8.0 16.1 0.00 0.58 0.05 51 1014.8
20260905213945 23 230 4.8 12.9 0.00 0.61 0.05 53 1014.8
20260905213443 23 247 1.6 11.3 0.00 0.66 0.05 55 1014.9
20260905213210 23 38 3.2 11.3 0.00 0.71 0.05 52 1015.0
20260905212447 23 14 6.4 12.9 0.00 0.74 0.05 57 1015.0
20260905211946 23 348 4.8 12.9 0.00 0.76 0.05 54 1015.1
20260905211443 23 247 4.8 12.9 0.00 0.79 0.05 55 1015.2
20260905210943 23 174 6.4 12.9 0.00 0.79 0.05 53 1015.2
20260905210704 22 242 4.8 12.9 0.00 0.81 0.05 58 1015.4
20260905205945 22 323 3.2 8.0 0.00 0.81 0.05 59 1015.4
20260905205445 22 235 4.8 14.5 0.00 0.84 0.05 60 1015.6
20260905204934 22 262 4.8 14.5 0.00 0.84 0.05 60 1015.6
20260905204429 22 251 4.8 8.0 0.00 0.86 0.05 59 1015.7
20260905203929 22 252 3.2 8.0 0.00 0.89 0.05 59 1015.7
20260905203432 22 274 1.6 6.4 0.00 0.91 0.05 60 1015.5
20260905202925 22 37 1.6 4.8 0.00 0.94 0.05 56 1015.6
20260905202645 22 128 3.2 8.0 0.00 0.97 0.05 56 1015.6
20260905201925 22 108 3.2 12.9 0.00 0.97 0.05 56 1015.7
20260905201423 22 155 1.6 12.9 0.00 0.99 0.05 58 1015.6
20260905200917 22 178 3.2 8.0 0.00 0.99 0.05 57 1015.7
20260905200413 22 301 4.8 11.3 0.00 0.99 0.05 60 1015.7
20260905195913 22 352 3.2 11.3 0.00 0.99 0.05 64 1015.7
20260905195409 22 325 3.2 11.3 0.00 1.02 0.05 62 1015.7
20260905194907 22 238 3.2 12.9 0.00 1.02 0.05 60 1015.8
20260905194403 22 250 3.2 12.9 0.00 1.02 0.05 61 1015.9
20260905193906 21 328 3.2 8.0 0.00 1.02 0.05 64 1016.0
20260905193353 21 124 3.2 11.3 0.00 1.02 0.05 63 1016.2
20260905192839 21 166 3.2 9.7 0.00 1.02 0.05 62 1016.1
20260905191839 20 131 3.2 8.0 0.00 1.02 0.05 64 1016.3
20260905191335 20 241 1.6 6.4 0.00 1.02 0.05 66 1016.2
20260905190823 20 198 3.2 8.0 0.00 1.02 0.05 68 1016.2
20260905190322 20 310 4.8 8.0 0.00 1.02 0.05 69 1016.3
20260905185819 20 308 3.2 8.0 0.00 1.02 0.05 72 1016.3
20260905185543 20 281 1.6 8.0 0.00 1.02 0.05 71 1016.3
20260905184817 20 295 1.6 6.4 0.00 1.02 0.05 73 1016.3
20260905184538 19 27 1.6 6.4 0.00 1.02 0.05 71 1016.4
20260905183811 19 105 1.6 6.4 0.00 1.02 0.05 72 1016.4
20260905183307 19 266 1.6 4.8 0.00 1.02 0.05 75 1016.4
20260905182809 18 123 1.6 9.7 0.00 1.02 0.05 75 1016.4
20260905182309 18 99 1.6 9.7 0.00 1.02 0.05 75 1016.4
20260905181804 18 33 3.2 12.9 0.00 1.02 0.05 79 1016.5
20260905181525 18 33 4.8 12.9 0.00 1.02 0.05 75 1016.5
20260905180800 18 240 1.6 8.0 0.00 1.02 0.05 76 1016.5
20260905180258 18 69 1.6 6.4 0.00 1.02 0.05 78 1016.4
20260905180025 18 335 1.6 6.4 0.00 1.02 0.05 79 1016.4
20260905175252 17 317 1.6 4.8 0.00 1.02 0.05 78 1016.5
20260905174747 17 48 3.2 12.9 0.00 1.02 0.05 79 1016.6
20260905174244 17 341 3.2 12.9 0.00 1.02 0.05 81 1016.7
20260905173737 17 299 1.6 6.4 0.00 1.02 0.05 79 1016.7
20260905173236 17 270 1.6 6.4 0.00 1.02 0.05 79 1016.7
20260905172954 17 255 1.6 4.8 0.00 1.02 0.05 77 1016.7
20260905172234 17 205 1.6 4.8 0.00 1.04 0.05 77 1016.7
20260905171728 17 205 1.6 4.8 0.00 1.04 0.05 78 1016.6
20260905171711 17 251 1.6 4.8 0.00 1.04 0.05 78 1016.7
20260905170727 17 167 3.2 8.0 0.00 1.04 0.05 78 1016.5
20260905170226 17 128 3.2 9.7 0.00 1.04 0.05 80 1016.6
20260905165721 16 129 3.2 9.7 0.00 1.04 0.05 81 1016.6
20260905165220 16 149 4.8 11.3 0.00 1.04 0.05 83 1016.5
20260905164722 16 158 6.4 11.3 0.00 1.07 0.05 83 1016.4
20260905164212 16 148 4.8 11.3 0.00 1.07 0.05 84 1016.4
20260905163708 15 141 4.8 14.5 0.00 1.09 0.05 84 1016.3
20260905163210 15 116 6.4 14.5 0.00 1.12 0.05 85 1016.4
20260905162708 15 104 6.4 14.5 0.00 1.14 0.05 87 1016.3
20260905162209 15 156 6.4 12.9 0.00 1.17 0.05 87 1016.4
20260905161708 14 176 8.0 12.9 0.00 1.19 0.05 87 1016.4
20260905161206 14 102 8.0 12.9 0.00 1.24 0.05 88 1016.3
20260905160708 14 97 8.0 14.5 0.00 1.27 0.05 89 1016.4
20260905160205 13 81 8.0 17.7 0.00 1.27 0.05 89 1016.4
20260905155705 13 85 6.4 17.7 0.00 1.27 0.05 91 1016.5
20260905155204 13 106 4.8 11.3 0.00 1.27 0.05 90 1016.5
20260905154931 13 121 4.8 12.9 0.00 1.30 0.05 90 1016.6
20260905154206 13 120 6.4 12.9 0.00 1.30 0.05 91 1016.5
20260905153702 13 85 6.4 14.5 0.00 1.30 0.05 91 1016.6
20260905153201 13 109 4.8 14.5 0.00 1.30 0.05 91 1016.7
20260905152707 12 130 6.4 12.9 0.00 1.30 0.05 92 1016.7
20260905152702 13 101 4.8 12.9 0.00 1.30 0.05 92 1016.7
20260905151700 12 146 4.8 11.3 0.00 1.30 0.05 93 1016.7
20260905151201 12 124 4.8 11.3 0.00 1.30 0.05 93 1016.7
20260905150658 12 124 3.2 9.7 0.00 1.30 0.05 94 1016.8
20260905150158 12 104 1.6 8.0 0.00 1.30 0.05 95 1016.7
20260905145658 12 100 3.2 6.4 0.00 1.30 0.05 95 1016.7
20260905145155 12 126 1.6 6.4 0.00 1.30 0.05 95 1016.8
20260905144657 12 100 1.6 4.8 0.00 1.30 0.05 95 1016.7
20260905144154 12 133 1.6 4.8 0.00 1.30 0.05 95 1016.8
20260905143652 12 119 0.0 6.4 0.00 1.30 0.05 96 1016.7
20260905143147 12 95 0.0 6.4 0.00 1.30 0.05 96 1016.7
20260905142652 12 113 0.0 3.2 0.00 1.30 0.05 96 1016.7
20260905142144 12 113 0.0 4.8 0.00 1.30 0.05 96 1016.7
20260905141646 11 112 0.0 4.8 0.00 1.30 0.05 96 1016.6
20260905141145 11 113 1.6 4.8 0.00 1.30 0.05 96 1016.6
20260905140645 11 128 1.6 4.8 0.00 1.30 0.05 96 1016.5
20260905140145 12 159 0.0 3.2 0.00 1.30 0.05 96 1016.5
20260905135643 12 159 0.0 0.0 0.00 1.30 0.05 95 1016.4
20260905135144 12 159 0.0 0.0 0.00 1.30 0.05 95 1016.4
20260905134629 12 159 0.0 0.0 0.00 1.30 0.05 95 1016.4
20260905134120 12 159 0.0 1.6 0.00 1.30 0.05 95 1016.3
20260905133613 12 159 0.0 1.6 0.00 1.30 0.05 95 1016.3
20260905133101 12 159 0.0 0.0 0.00 1.30 0.05 95 1016.3
20260905132600 12 159 0.0 0.0 0.00 1.30 0.05 95 1016.4
20260905132056 12 159 0.0 0.0 0.00 1.30 0.05 95 1016.4
20260905131555 12 159 0.0 0.0 0.03 1.30 0.05 95 1016.4
20260905131050 12 159 0.0 0.0 0.03 1.30 0.05 95 1016.3
20260905130551 12 160 0.0 0.0 0.03 1.30 0.05 95 1016.3
20260905130050 12 160 0.0 0.0 0.03 1.30 0.05 95 1016.3
20260905125812 12 160 0.0 0.0 0.03 1.30 0.05 95 1016.3
20260905125258 12 160 0.0 0.0 0.03 1.30 0.05 95 1016.2
20260905124538 12 160 0.0 0.0 0.05 1.30 0.05 95 1016.2
20260905124020 12 160 0.0 0.0 0.05 1.30 0.05 95 1016.1
20260905123510 12 160 0.0 1.6 0.05 1.30 0.05 95 1016.2
20260905123205 12 160 0.0 1.6 0.05 1.30 0.05 95 1016.1
20260905122433 12 160 0.0 0.0 0.05 1.30 0.05 95 1016.1
20260905121931 12 160 0.0 1.6 0.05 1.32 0.05 95 1016.1
20260905121428 12 160 0.0 3.2 0.03 1.30 0.03 95 1016.0
20260905120917 12 160 0.0 3.2 0.03 1.30 0.03 95 1016.1
20260905120414 12 205 1.6 3.2 0.03 1.30 0.03 95 1016.2
20260905115909 12 247 1.6 3.2 0.03 1.30 0.03 95 1016.1
20260905115347 12 273 1.6 4.8 0.03 1.30 0.03 95 1016.1
20260905114848 12 273 0.0 4.8 0.03 1.30 0.03 95 1016.2
20260905114350 12 281 0.0 4.8 0.00 1.27 0.00 95 1016.2
20260905113849 12 161 0.0 0.0 0.00 1.27 0.00 95 1016.2
20260905113552 12 161 0.0 0.0 0.00 1.27 0.00 94 1016.1
20260905113040 12 161 0.0 0.0 0.00 1.27 0.00 94 1016.1
20260905112307 12 161 0.0 0.0 0.00 1.27 0.00 94 1016.2
20260905111810 12 161 0.0 0.0 0.00 1.27 0.00 94 1016.1
20260905111304 12 161 0.0 1.6 0.00 1.27 0.00 94 1016.1
20260905110743 12 161 0.0 4.8 0.00 1.27 0.00 94 1016.0
20260905110227 12 161 1.6 4.8 0.00 1.27 0.00 94 1016.0
20260905105713 12 149 1.6 4.8 0.00 1.27 0.00 94 1015.9
20260905105356 12 149 3.2 6.4 0.00 1.27 0.00 94 1015.9
20260905104626 12 155 3.2 6.4 0.00 1.27 0.00 94 1016.0
20260905104112 12 147 1.6 6.4 0.00 1.27 0.00 94 1016.0
20260905103608 12 146 1.6 4.8 0.00 1.27 0.00 94 1015.9
20260905103107 12 126 1.6 4.8 0.00 1.27 0.00 94 1016.0
20260905102604 12 136 1.6 6.4 0.00 1.27 0.00 94 1016.0
20260905102101 12 164 1.6 6.4 0.00 1.27 0.00 94 1016.1
20260905101549 12 153 1.6 6.4 0.00 1.27 0.00 94 1016.0
20260905101040 12 124 1.6 3.2 0.00 1.27 0.00 94 1016.0
20260905100541 12 147 1.6 4.8 0.00 1.27 0.00 94 1016.1
20260905100038 12 145 3.2 6.4 0.00 1.27 0.00 94 1016.0
20260905095806 12 155 1.6 6.4 0.00 1.27 0.00 94 1016.1
20260905095039 12 136 1.6 4.8 0.00 1.27 0.00 94 1016.0
20260905094535 12 136 1.6 4.8 0.00 1.27 0.00 93 1016.0
20260905094248 12 135 3.2 4.8 0.00 1.27 0.00 93 1016.0
20260905093529 12 141 3.2 6.4 0.00 1.27 0.00 93 1016.0
20260905093032 12 149 3.2 8.0 0.00 1.27 0.00 93 1016.0
20260905092525 12 135 3.2 8.0 0.00 1.27 0.00 93 1016.1
20260905092025 12 134 3.2 6.4 0.00 1.27 0.00 93 1016.0
20260905091523 12 128 3.2 6.4 0.00 1.27 0.00 93 1016.1
20260905091019 12 129 3.2 6.4 0.00 1.27 0.00 93 1016.0
20260905090520 12 135 3.2 6.4 0.00 1.27 0.00 93 1015.9
20260905090019 12 133 4.8 6.4 0.00 1.27 0.00 93 1015.9
20260905085512 12 145 4.8 8.0 0.00 1.27 0.00 93 1015.9
20260905085009 12 135 4.8 8.0 0.00 1.27 0.00 93 1015.9
20260905084509 12 149 4.8 8.0 0.00 1.27 0.00 93 1016.0
20260905084007 12 155 4.8 8.0 0.00 1.27 0.00 93 1015.9
20260905083505 12 131 4.8 8.0 0.00 1.27 0.00 93 1015.8
20260905083003 12 150 3.2 6.4 0.00 1.27 0.00 93 1015.8
20260905082500 12 143 3.2 6.4 0.00 1.27 0.00 93 1015.7
20260905081957 12 133 4.8 8.0 0.00 1.27 0.00 93 1015.7
20260905081455 12 137 4.8 9.7 0.00 1.27 0.00 93 1015.7
20260905080955 12 135 4.8 9.7 0.00 1.27 0.00 93 1015.6
20260905080453 12 139 3.2 6.4 0.00 1.27 0.00 93 1015.6
20260905075952 12 132 3.2 6.4 0.00 1.30 0.00 93 1015.5
20260905075947 12 137 3.2 6.4 0.00 1.32 0.00 93 1015.6
20260905074946 12 132 3.2 6.4 0.00 1.37 0.00 93 1015.6
20260905074444 12 137 3.2 6.4 0.00 1.42 0.00 93 1015.5
20260905073946 12 121 3.2 6.4 0.00 1.47 0.00 93 1015.5
20260905073705 12 126 3.2 6.4 0.00 1.50 0.00 93 1015.6
20260905072938 12 151 4.8 6.4 0.00 1.52 0.00 93 1015.5
20260905072437 13 139 3.2 6.4 0.00 1.57 0.00 93 1015.5
20260905071939 13 126 3.2 6.4 0.00 1.60 0.00 94 1015.6
20260905071658 13 151 3.2 6.4 0.00 1.63 0.00 94 1015.6
20260905070941 12 133 3.2 6.4 0.00 1.63 0.00 94 1015.4
20260905070434 12 128 3.2 6.4 0.00 1.63 0.00 94 1015.4
20260905065932 12 137 3.2 8.0 0.00 1.63 1.63 94 1015.3
20260905065427 12 135 3.2 8.0 0.00 1.63 1.63 94 1015.5
20260905064919 12 126 1.6 4.8 0.00 1.63 1.63 94 1015.3
20260905064912 12 126 1.6 3.2 0.00 1.63 1.63 94 1015.3
20260905063917 12 126 1.6 3.2 0.00 1.65 1.63 94 1015.3
20260905063414 12 126 0.0 3.2 0.00 1.65 1.63 94 1015.3
20260905062912 12 126 0.0 3.2 0.00 1.65 1.63 94 1015.2
20260905062406 13 126 1.6 3.2 0.00 1.65 1.63 94 1015.3
20260905061905 13 126 1.6 4.8 0.00 1.65 1.63 94 1015.4
20260905061355 13 126 1.6 4.8 0.00 1.65 1.63 94 1015.3
20260905060854 13 126 1.6 4.8 0.00 1.68 1.63 93 1015.3
20260905060348 13 127 3.2 6.4 0.00 1.68 1.63 93 1015.3
20260905055846 13 134 3.2 6.4 0.00 1.68 1.63 93 1015.3
20260905055337 13 124 3.2 6.4 0.00 1.68 1.63 93 1015.4
20260905055102 13 147 3.2 6.4 0.00 1.68 1.63 93 1015.3
20260905054551 13 148 3.2 6.4 0.00 1.68 1.63 93 1015.4
20260905054050 13 137 3.2 6.4 0.00 1.70 1.63 93 1015.3
20260905053334 13 135 4.8 6.4 0.00 1.70 1.63 93 1015.3
20260905052829 13 133 4.8 6.4 0.00 1.70 1.63 93 1015.3
20260905052327 13 131 3.2 6.4 0.00 1.73 1.63 93 1015.3
20260905051824 13 151 3.2 6.4 0.00 1.73 1.63 93 1015.2
20260905051812 13 139 3.2 6.4 0.00 1.75 1.63 93 1015.2
20260905051039 13 122 1.6 6.4 0.00 1.78 1.63 93 1015.2
20260905050316 13 142 1.6 4.8 0.00 1.78 1.63 93 1015.1
20260905045816 13 138 1.6 4.8 0.00 1.80 1.63 93 1015.0
20260905045535 13 138 1.6 4.8 0.00 1.80 1.63 93 1015.1
20260905044816 13 139 1.6 4.8 0.00 1.83 1.63 93 1015.0
20260905044540 13 138 1.6 4.8 0.00 1.83 1.63 93 1015.1
20260905043806 13 151 1.6 4.8 0.00 1.83 1.63 93 1015.0
20260905043522 13 151 1.6 4.8 0.00 1.83 1.63 93 1015.0
20260905042748 13 126 1.6 6.4 0.00 1.83 1.63 92 1015.0
20260905042243 13 108 1.6 9.7 0.00 1.83 1.63 93 1014.9
20260905041740 13 120 3.2 9.7 0.00 1.83 1.63 93 1014.8
20260905041239 13 118 1.6 6.4 0.00 1.83 1.63 93 1014.7
20260905040738 13 132 0.0 1.6 0.00 1.83 1.63 93 1014.7
20260905040233 13 132 1.6 1.6 0.00 1.83 1.63 93 1014.7
20260905035732 13 132 1.6 1.6 0.00 1.83 1.63 93 1014.7
20260905035230 13 132 1.6 1.6 0.00 1.83 1.63 93 1014.7
20260905034731 13 132 1.6 1.6 0.00 1.83 1.63 93 1014.6
20260905034229 13 116 1.6 1.6 0.00 1.83 1.63 93 1014.6
20260905033727 13 126 1.6 1.6 0.00 1.83 1.63 93 1014.5
20260905033231 13 122 1.6 1.6 0.00 1.83 1.63 93 1014.4
20260905032715 13 122 1.6 1.6 0.00 1.83 1.63 93 1014.2
20260905032444 13 122 1.6 1.6 0.00 1.83 1.63 93 1014.3
20260905031717 13 122 1.6 1.6 0.00 1.85 1.63 93 1014.2
20260905031214 13 122 0.0 1.6 0.00 1.85 1.63 93 1014.1
20260905031201 13 104 0.0 1.6 0.03 1.85 1.63 93 1014.0
20260905030428 13 96 1.6 1.6 0.03 1.85 1.63 93 1014.1
20260905025700 13 135 1.6 1.6 0.03 1.85 1.63 93 1014.0
20260905025435 13 135 0.0 1.6 0.03 1.85 1.63 92 1014.0
20260905024647 13 135 0.0 1.6 0.05 1.85 1.63 92 1014.0
20260905024137 13 135 1.6 1.6 0.05 1.85 1.63 92 1014.0
20260905023626 13 135 1.6 1.6 0.05 1.85 1.63 92 1013.9
20260905023109 13 135 1.6 1.6 0.08 1.85 1.63 91 1013.8
20260905022606 13 133 1.6 1.6 0.08 1.85 1.63 91 1013.8
20260905022324 14 144 1.6 1.6 0.08 1.85 1.63 91 1013.8
20260905021602 14 145 1.6 1.6 0.08 1.85 1.63 92 1013.8
20260905021101 14 134 1.6 1.6 0.08 1.85 1.63 92 1013.8
20260905020823 14 129 1.6 1.6 0.05 1.83 1.60 92 1013.8
20260905020313 14 127 1.6 1.6 0.05 1.83 1.60 92 1013.8
20260905015556 14 149 1.6 1.6 0.05 1.83 1.60 92 1013.6
20260905015054 14 139 1.6 1.6 0.03 1.80 1.60 92 1013.5
20260905014550 14 140 1.6 1.6 0.03 1.80 1.57 93 1013.6
20260905014050 15 135 1.6 1.6 0.03 1.80 1.57 93 1013.5
20260905013807 15 123 1.6 1.6 0.03 1.80 1.57 93 1013.5
20260905013313 15 128 1.6 1.6 0.03 1.78 1.57 93 1013.4
20260905012546 15 127 1.6 1.6 0.03 1.80 1.55 92 1013.4
20260905012047 15 94 1.6 1.6 0.03 1.80 1.55 92 1013.4
20260905011546 15 131 1.6 1.6 0.05 1.85 1.55 92 1013.3
20260905011044 15 147 1.6 1.6 0.05 1.88 1.55 92 1013.3
20260905010807 15 101 1.6 1.6 0.05 1.91 1.55 92 1013.4
20260905010041 15 131 1.6 1.6 0.08 1.91 1.55 92 1013.3
20260905005541 15 116 1.6 1.6 0.08 1.96 1.55 92 1013.3
20260905005037 15 124 1.6 1.6 0.08 1.98 1.55 92 1013.3
20260905004532 15 133 1.6 1.6 0.08 1.98 1.55 92 1013.1